Location: Fort Wayne
(41.1310°N, 85.1290°W)
Time: 20:45:02
(UTC-05:00)

ISS - Visible Passes

Search period start: 13 February 2016 00:00
Search period end: 23 February 2016 00:00
Orbit: 398 x 407 km, 51.6° (Epoch: 13 February)

Date Brightness Start Highest point End Pass type
(mag) Time Alt. Az. Time Alt. Az. Time Alt. Az.
13 Feb -1.3 19:15:46 10° NNW 19:17:52 16° NNE 19:18:50 14° NE visible
14 Feb -1.7 19:59:02 10° NW 20:00:58 25° N 20:00:58 25° N visible
15 Feb -1.7 19:06:24 10° NNW 19:09:00 22° NNE 19:10:31 16° ENE visible
15 Feb -0.3 20:42:28 10° WNW 20:43:09 15° WNW 20:43:09 15° WNW visible
16 Feb -3.3 19:49:38 10° NW 19:52:45 62° NNE 19:52:45 62° NNE visible
17 Feb -2.6 18:56:51 10° NW 18:59:53 36° NNE 19:02:27 13° E visible
17 Feb -0.8 20:33:26 10° WNW 20:35:06 22° W 20:35:06 22° W visible
18 Feb -2.8 19:40:15 10° WNW 19:43:26 54° SW 19:44:56 27° SSE visible
19 Feb -3.4 18:47:16 10° NW 18:50:31 75° NE 18:53:45 10° ESE visible
19 Feb -0.3 20:25:16 10° WSW 20:26:31 12° SW 20:27:36 10° SSW visible
20 Feb -1.0 19:31:08 10° W 19:33:45 23° SW 19:36:21 10° S visible
